Regional Weather Roundup
Issued by NWS

Home | Current Version | Previous Version | Graphics & Text | Print | Product List | Glossary On
Versions: 1 2 3 4 5 6 7 8 9 10 11 12 13 14 15 16 17 18 19 20 21 22 23 24 25 26 27 28 29 30 31 32 33 34 35 36 37 38 39 40 41 42 43 44 45 46 47 48 49 50
000
ASUS43 KMPX 241601
RWRMN
WEATHER ROUNDUP FOR MINNESOTA
NATIONAL WEATHER SERVICE TWIN CITIES/CHANHASSEN MN
1100 AM CDT WED MAY 24 2017


NOTE: "FAIR" INDICATES FEW OR NO CLOUDS BELOW 12,000 FEET WITH NO
SIGNIFICANT WEATHER AND/OR OBSTRUCTIONS TO VISIBILITY. N/A MEANS
CURRENT SKY AND/OR WEATHER CONDITIONS ARE NOT AVAILABLE.

MNZ060>063-068>070-241700-
   Twin Cities Metro

CITY           SKY/WX    TMP DP  RH WIND       PRES   REMARKS
TWIN CITIES    PTSUNNY   56  45  66 NW9       29.76F
ST PAUL        CLOUDY    56  46  69 N6        29.76F
CRYSTAL        PTSUNNY   54  43  66 VRB3      29.76F
BLAINE         PTSUNNY   59  46  63 MISG      29.76F
LAKEVILLE      CLOUDY    52  46  82 N6        29.76S
EDEN PRAIRIE   CLOUDY    54  45  71 NE7       29.76F
SOUTH ST PAUL  PTSUNNY   55  45  67 N6        29.75F
LAKE ELMO      PTSUNNY   55  46  71 NE9       29.76F
$$
MNZ001>005-007-008-013>017-022>024-027-028-241700-
   Northwest Minnesota

CITY           SKY/WX    TMP DP  RH WIND       PRES   REMARKS
BEMIDJI        FAIR      58  41  54 E10       29.80F
HALLOCK        FAIR      64  39  39 S15G23    29.77F
ROSEAU         FAIR      63  43  48 SE10G17   29.80F
WARROAD        FAIR      61  45  55 NE8       29.81F
CROOKSTON      FAIR      61  41  48 SE12      29.78F
FOSSTON        FAIR      57  48  72 E6        29.80F
DETROIT LAKES  FAIR      57  41  54 SE13      29.79F
MOORHEAD       FAIR      59  45  58 S5        29.78F
PARK RAPIDS    FAIR      58  39  49 VRB6      29.79F
MAHNOMEN       FAIR      57  41  55 E10G16    29.79F
$$
MNZ006-009>011-018-025>026-241700-
   North Central Minnesota

CITY           SKY/WX    TMP DP  RH WIND       PRES   REMARKS
BAUDETTE       FAIR      62  40  44 E8        29.81F
FLAG ISLAND    FAIR      54  46  76 S6        29.80F
INTL FALLS     FAIR      61  36  39 VRB7      29.81F
WASKISH        CLOUDY    61  43  51 SE10      29.81F
BIG FORK       FAIR      61  39  44 E8        29.81F
LONGVILLE      FAIR      59  43  55 E8        29.80F
GRAND RAPIDS   CLOUDY    55  42  61 SE8G18    29.82F
CRANE LAKE     FAIR      57  39  51 N7        29.83F
COOK           FAIR      57  39  51 CALM      29.82F
WALKER         FAIR      56  43  61 E5        29.80F
$$
MNZ012-019>021-037-241700-
   Northeast Minnesota

CITY           SKY/WX    TMP DP  RH WIND       PRES   REMARKS
DULUTH         PTSUNNY   55  45  68 E12G22    29.80F
ELY            PTSUNNY   57  39  51 E6        29.82F
HIBBING        PTSUNNY   55  39  54 E10       29.81F
EVELETH        FAIR      58  34  40 E13       29.82F
DULUTH HARBOR  CLOUDY    48  45  87 E13       29.83F
TWO HARBORS    PTSUNNY   57  46  67 E7        29.80F
SILVER BAY     CLOUDY    54  43  66 E12G17    29.82S
GRAND MARAIS     N/A     50  39  66 NE12      29.83F
G MARAIS ARPRT CLOUDY    54  36  50 NE9       29.83F
$$
MNZ029>031-032-039>041-046>048-054>057-064-241700-
   West Central Minnesota

CITY           SKY/WX    TMP DP  RH WIND       PRES   REMARKS
FERGUS FALLS   PTSUNNY   57  43  58 CALM      29.77F
WHEATON        CLOUDY    55  46  71 SE5       29.80F
MORRIS         PTSUNNY   55  46  71 SE3       29.78F
ALEXANDRIA     CLOUDY    55  44  66 NE9       29.79F
ELBOW LAKE     CLOUDY    55  46  71 NE5       29.79F
WADENA         PTSUNNY   57  43  58 E8        29.79F
GLENWOOD       PTSUNNY   55  45  67 E7        29.79F
APPLETON       CLOUDY    55  45  67 E3        29.78F
BENSON         CLOUDY    57  45  62 E5        29.79F
ORTONVILLE     CLOUDY    55  46  71 E3        29.78F
MADISON        CLOUDY    57  48  72 E5        29.78F
WILLMAR        PTSUNNY   55  46  71 NE10      29.79F
$$
MNZ033>034-036-042>043-049>051-058-059-241700-
   Central Minnesota

CITY           SKY/WX    TMP DP  RH WIND       PRES   REMARKS
ST CLOUD       CLOUDY    55  46  71 E7        29.77F
SAUK CENTRE    CLOUDY    53  43  66 NE6       29.79F
PAYNESVILLE    CLOUDY    54  40  59 E10       29.79S
AITKIN         PTSUNNY   55  45  67 NE13      29.78F
PINE RIVER     PTSUNNY   57  45  62 E9        29.83F
BRAINERD       PTSUNNY   55  41  59 NE15G25   29.79F
STAPLES        PTSUNNY   54  39  58 NE8       29.79F
LONG PRAIRIE   CLOUDY    54  43  66 N6        29.79F
LITTLE FALLS   CLOUDY    54  43  66 E5        29.79S
LITCHFIELD     CLOUDY    55  46  71 NE8       29.77F
BUFFALO        CLOUDY    54  44  68 N8        29.78F
MAPLE LAKE     CLOUDY    55  47  74 NE8       29.78F
HUTCHINSON     CLOUDY    55  47  74 NE9       29.78F
$$
MNZ037-044-045-052-053-241700-
   East Central Minnesota

CITY           SKY/WX    TMP DP  RH WIND       PRES   REMARKS
PRINCETON      CLOUDY    57  46  67 N10       29.78F
MORA           CLOUDY    54  43  66 E5        29.80F
CAMBRIDGE      CLOUDY    57  45  62 NE8       29.76F
RUSH CITY      CLOUDY    56  45  66 NE7       29.77F
MOOSE LAKE     FAIR      54  41  62 NE9G16    29.78F
HINCKLEY       CLOUDY    55  45  67 E9        29.78F
CLOQUET        CLOUDY    52  43  71 E12G21    29.81F
MCGREGOR       PTSUNNY   55  43  62 E12G17    29.80F
$$
MNZ071>073-080-081-089-090-097-098-241700-
   Southwest Minnesota

CITY           SKY/WX    TMP DP  RH WIND       PRES   REMARKS
MONTEVIDEO     CLOUDY    57  48  72 E6        29.78F
CANBY          FAIR      56  47  72 CALM      29.79F
MARSHALL       FAIR      54  47  77 N6        29.79F
REDWOOD FALLS  PTSUNNY   57  43  59 VRB7      29.77F
OLIVIA         PTSUNNY   55  43  62 N10       29.76F
PIPESTONE      FAIR      54  43  66 E3        29.78F
WINDOM         FAIR      54  46  76 N6        29.78S
WORTHINGTON    CLOUDY    52  45  77 N8        29.78F
JACKSON        PTSUNNY   52  45  76 N6        29.77F
TRACY          PTSUNNY   53  46  78 NE5       29.78F
SLAYTON        PTSUNNY   51  45  80 N7        29.80S
$$
MNZ065>067-074>077-082>085-091>093-241700-
   South Central Minnesota

CITY           SKY/WX    TMP DP  RH WIND       PRES   REMARKS
NEW ULM        PTSUNNY   54  45  71 NE7       29.76F
ST JAMES       CLOUDY    54  46  76 N8        29.78S
GLENCOE        CLOUDY    53  48  82 N6        29.77S
FARIBAULT      CLOUDY    54  46  76 N7        29.76F
OWATONNA       CLOUDY    52  46  82 N9        29.75F
WASECA         CLOUDY    52  46  82 NW9       29.76F
ALBERT LEA     CLOUDY    54  48  82 N9        29.74F
$$
MNZ078>079-086>088-094>096-241700-
   Southeast Minnesota

CITY           SKY/WX    TMP DP  RH WIND       PRES   REMARKS
ROCHESTER      CLOUDY    54  49  83 N12       29.74S
RED WING       PTSUNNY   57  45  62 N6        29.73F
STANTON        CLOUDY    54  47  78 N6        29.75S
DODGE CENTER   PTSUNNY   52  46  82 N10       29.74S
WINONA         CLOUDY    55  46  71 NE3       29.72F
AUSTIN         CLOUDY    52  46  82 N7        29.73S
PRESTON        CLOUDY    54  46  76 NE9       29.72F
$$
ABBREVIATIONS USED IN REMARKS
   TC - TEMPERATURES IN CELSIUS
  WCI - WIND CHILL INDEX
   HX - HEAT INDEX
  VSB - VISIBILITY
$$




USA.gov is the U.S. government's official web portal to all federal, state and local government web resources and services.